Bratts Lake, Saskatchewan

7:39 AM CST on April 23, 2017 (GMT -0600)
Bratts Lake

Weather History for CXBK - July, 2013

Change the Weather History Date:

Thursday, July 4, 2013

  Actual Average (CYQR) Record (CYQR)
Temperature  
Mean Temperature 68 °F -  
Max Temperature 81 °F 72 °F 89 °F (2008)
Min Temperature 56 °F 50 °F 42 °F (2001)
Cooling Degree Days 4    
Growing Degree Days 18 (Base 50)    
Moisture  
Dew Point 52 °F    
Average Humidity 60    
Maximum Humidity 92    
Minimum Humidity 18    
Precipitation  
Precipitation 0.00 in - - ()
Sea Level Pressure  
Sea Level Pressure 29.80 in    
Wind  
Wind Speed 7 mph ()    
Max Wind Speed 13 mph    
Max Gust Speed 18 mph    
Averages and records for this station are not official NWS values.
T = Trace of Precipitation, MM = Missing Value Source: Averaged Metar Reports

Daily Weather History Graph

Daily Weather History Graph

Search for Another Location

Airport or City:

Trip Planner

Search our weather history database for the weather conditions in past years. The results will help you decide how hot, cold, wet, or windy it might be!

Date:

Astronomy

Jul. 04, 2013 Rise Set
Actual Time 4:55 AM CST 9:10 PM CST
Civil Twilight 4:11 AM CST 9:55 PM CST
Nautical Twilight 3:06 AM CST 10:58 PM CST
Astronomical Twilight 1:35 AM CST 12:30 AM CST
Moon 2:22 AM CST (7/4) 6:10 PM CST (7/4)
Length of Visible Light 17h 44m
Length of Day
16h 15m
Waning Crescent, 11% of the Moon is Illuminated
Jul 4
Waning Crescent
Jul 8
New
Jul 15
First Quarter
Jul 22
Full
Jul 29
Last Quarter

Hourly Weather History & Observations

Time (CST) Temp. Dew Point Humidity Pressure Visibility Wind Dir Wind Speed Gust Speed Precip Events Conditions
12:00 AM 64 °F 60 °F 84% 29.76 in - WNW 6.9 mph - -  
12:00 AM 63.9 °F 60.3 °F 88% 29.76 in - WNW 6.9 mph - N/A   Unknown
1:00 AM 61.5 °F 58.3 °F 89% 29.78 in - NW 9.2 mph - N/A   Unknown
2:00 AM 59.0 °F 56.3 °F 91% 29.78 in - WNW 9.2 mph - N/A   Unknown
3:00 AM 59.0 °F 56.1 °F 90% 29.79 in - WNW 10.4 mph - N/A   Unknown
4:00 AM 58.1 °F 55.8 °F 92% 29.80 in - West 8.1 mph - N/A   Unknown
5:00 AM 56.7 °F 54.5 °F 92% 29.81 in - West 8.1 mph - N/A   Unknown
6:00 AM 59 °F 56 °F 86% 29.81 in - WNW 6.9 mph - -  
6:00 AM 58.8 °F 55.9 °F 90% 29.81 in - WNW 6.9 mph - N/A   Unknown
7:00 AM 61.7 °F 57.0 °F 85% 29.83 in - WNW 10.4 mph - N/A   Unknown
8:00 AM 66.7 °F 56.5 °F 70% 29.83 in - NW 11.5 mph - N/A   Unknown
9:00 AM 70.2 °F 57.4 °F 64% 29.83 in - NW 9.2 mph - N/A   Unknown
10:00 AM 73.4 °F 55.9 °F 54% 29.83 in - NW 10.4 mph - N/A   Unknown
11:00 AM 77.0 °F 51.4 °F 41% 29.83 in - NW 12.7 mph 18.4 mph N/A   Unknown
12:00 PM 77 °F 45 °F 21% 29.83 in - NNW 9.2 mph - -  
12:00 PM 77.0 °F 44.8 °F 32% 29.83 in - NNW 9.2 mph - N/A   Unknown
1:00 PM 77.9 °F 45.5 °F 32% 29.83 in - NNW 5.8 mph - N/A   Unknown
2:00 PM 79.3 °F 47.7 °F 33% 29.82 in - NNW 8.1 mph - N/A   Unknown
3:00 PM 77.9 °F 48.2 °F 35% 29.82 in - NNW 6.9 mph - N/A   Unknown
4:00 PM 78.1 °F 45.9 °F 32% 29.82 in - NNE 1.2 mph - N/A   Unknown
5:00 PM 78.1 °F 47.1 °F 33% 29.81 in - NE 3.5 mph - N/A   Unknown
6:00 PM 80 °F 44 °F 18% 29.79 in - ENE 2.3 mph - -  
6:00 PM 79.5 °F 44.4 °F 29% 29.79 in - ENE 2.3 mph - N/A   Unknown
7:00 PM 78.6 °F 45.5 °F 31% 29.78 in - SSW 1.2 mph - N/A   Unknown
8:00 PM 76.5 °F 52.3 °F 43% 29.76 in - ENE 3.5 mph - N/A   Unknown
9:00 PM 67.1 °F 54.3 °F 63% 29.76 in - East 5.8 mph - N/A   Unknown
10:00 PM 64.4 °F 55.9 °F 74% 29.78 in - East 4.6 mph - N/A   Unknown
11:00 PM 61.7 °F 55.0 °F 79% 29.78 in - ESE 6.9 mph - N/A   Unknown